VJC365 VVTS-VVDN

Flight info

Callsign VJC365
Flight time 0h 59m
Altitude 37000
Route PATMA5B PATMA Q2 SADAS/K0819F290 Q7 MUMGA Q1 SADIN SADIN2L
Aircraft A321/M-SDE3FGHIRWY/LB1

Departure

Time 2026-04-20 04:44
Airport Tan Son Nhat International Airport (VVTS)

Arrival

Time 2026-04-20 05:43
Airport Da Nang International Airport (VVDN)
Time Latitude Longitude Altitude Speed Heading
2026-04-20 04:00 10.81326 106.66119 40 ft 0 kts 95°
2026-04-20 04:32 10.81327 106.66111 39 ft 4 kts 95°
2026-04-20 04:32 10.81329 106.66084 36 ft 4 kts 94°
2026-04-20 04:32 10.81331 106.66057 40 ft 4 kts 89°
2026-04-20 04:32 10.81330 106.66038 36 ft 2 kts 71°
2026-04-20 04:33 10.81325 106.66027 37 ft 2 kts 39°
2026-04-20 04:33 10.81316 106.66021 39 ft 2 kts 14°
2026-04-20 04:33 10.81305 106.66018 37 ft 2 kts
2026-04-20 04:33 10.81295 106.66017 38 ft 0 kts
2026-04-20 04:35 10.81297 106.66017 38 ft 2 kts
2026-04-20 04:35 10.81336 106.66022 39 ft 7 kts
2026-04-20 04:35 10.81378 106.66026 39 ft 6 kts
2026-04-20 04:35 10.81413 106.66029 39 ft 5 kts
2026-04-20 04:36 10.81482 106.66035 39 ft 4 kts
2026-04-20 04:36 10.81512 106.66038 39 ft 4 kts
2026-04-20 04:36 10.81556 106.66042 39 ft 8 kts
2026-04-20 04:37 10.81603 106.66047 39 ft 6 kts
2026-04-20 04:37 10.81643 106.66050 38 ft 5 kts
2026-04-20 04:37 10.81679 106.66053 39 ft 7 kts
2026-04-20 04:37 10.81780 106.66063 39 ft 17 kts
2026-04-20 04:38 10.81851 106.66080 39 ft 8 kts 32°
2026-04-20 04:38 10.81882 106.66124 29 ft 7 kts 66°
2026-04-20 04:38 10.81899 106.66171 39 ft 7 kts 70°
2026-04-20 04:38 10.81917 106.66217 39 ft 9 kts 69°
2026-04-20 04:39 10.81938 106.66271 39 ft 8 kts 69°
2026-04-20 04:39 10.81958 106.66326 39 ft 12 kts 69°
2026-04-20 04:39 10.82002 106.66443 39 ft 24 kts 69°
2026-04-20 04:39 10.82062 106.66601 39 ft 17 kts 69°
2026-04-20 04:40 10.82101 106.66705 39 ft 15 kts 69°
2026-04-20 04:40 10.82139 106.66804 38 ft 15 kts 69°
2026-04-20 04:40 10.82174 106.66899 38 ft 13 kts 69°
2026-04-20 04:40 10.82199 106.66964 38 ft 9 kts 68°
2026-04-20 04:41 10.82236 106.67004 39 ft 7 kts 18°
2026-04-20 04:41 10.82282 106.66997 39 ft 6 kts 342°
2026-04-20 04:41 10.82318 106.66973 38 ft 6 kts 310°
2026-04-20 04:41 10.82329 106.66950 36 ft 5 kts 289°
2026-04-20 04:42 10.82339 106.66903 38 ft 5 kts 278°
2026-04-20 04:42 10.82338 106.66872 38 ft 5 kts 262°
2026-04-20 04:42 10.82328 106.66838 38 ft 7 kts 250°
2026-04-20 04:42 10.82312 106.66795 37 ft 7 kts 249°
2026-04-20 04:43 10.82274 106.66697 37 ft 34 kts 249°
2026-04-20 04:43 10.82103 106.66241 39 ft 100 kts 249°
2026-04-20 04:43 10.81788 106.65403 38 ft 151 kts 249°
2026-04-20 04:43 10.81368 106.64288 134 ft 180 kts 247°
2026-04-20 04:44 10.80924 106.63112 706 ft 178 kts 245°
2026-04-20 04:44 10.80496 106.61965 1409 ft 176 kts 248°
2026-04-20 04:44 10.80038 106.60743 1886 ft 193 kts 245°
2026-04-20 04:44 10.79531 106.59405 2312 ft 212 kts 246°
2026-04-20 04:45 10.78978 106.57923 2688 ft 235 kts 247°
2026-04-20 04:45 10.78363 106.56281 2997 ft 261 kts 248°
2026-04-20 04:45 10.78037 106.54419 3540 ft 276 kts 271°
2026-04-20 04:45 10.78468 106.52531 4192 ft 282 kts 297°
2026-04-20 04:46 10.79647 106.50949 4942 ft 282 kts 322°
2026-04-20 04:46 10.81360 106.49988 5671 ft 281 kts 346°
2026-04-20 04:46 10.83288 106.49807 6394 ft 279 kts
2026-04-20 04:46 10.85222 106.50056 7114 ft 281 kts
2026-04-20 04:47 10.87141 106.50309 7837 ft 283 kts
2026-04-20 04:47 10.89112 106.50565 8604 ft 287 kts
2026-04-20 04:47 10.91103 106.50840 9331 ft 290 kts 13°
2026-04-20 04:47 10.93022 106.51483 9957 ft 293 kts 27°
2026-04-20 04:48 10.94732 106.52631 10533 ft 295 kts 42°
2026-04-20 04:48 10.96118 106.54173 10848 ft 305 kts 52°
2026-04-20 04:48 10.97468 106.55945 10920 ft 328 kts 53°
2026-04-20 04:48 10.98903 106.57842 10922 ft 342 kts 53°
2026-04-20 04:49 11.00373 106.59784 11135 ft 348 kts 52°
2026-04-20 04:49 11.01845 106.61715 11755 ft 350 kts 52°
2026-04-20 04:49 11.03358 106.63688 12355 ft 354 kts 52°
2026-04-20 04:49 11.04891 106.65681 12931 ft 358 kts 52°
2026-04-20 04:50 11.06436 106.67686 13509 ft 361 kts 51°
2026-04-20 04:50 11.07976 106.69690 14037 ft 365 kts 52°
2026-04-20 04:50 11.09553 106.71746 14537 ft 368 kts 52°
2026-04-20 04:50 11.11134 106.73810 15063 ft 371 kts 52°
2026-04-20 04:51 11.12727 106.75893 15584 ft 374 kts 52°
2026-04-20 04:51 11.14335 106.77993 16100 ft 377 kts 52°
2026-04-20 04:51 11.15962 106.80114 16613 ft 380 kts 52°
2026-04-20 04:51 11.17599 106.82244 17121 ft 383 kts 52°
2026-04-20 04:52 11.19224 106.84364 17616 ft 386 kts 52°
2026-04-20 04:52 11.20887 106.86540 18104 ft 389 kts 52°
2026-04-20 04:52 11.22557 106.88726 18539 ft 392 kts 52°
2026-04-20 04:52 11.24248 106.90935 18952 ft 395 kts 51°
2026-04-20 04:53 11.25921 106.93116 19363 ft 397 kts 51°
2026-04-20 04:53 11.27626 106.95342 19769 ft 400 kts 51°
2026-04-20 04:53 11.29341 106.97586 20161 ft 402 kts 51°
2026-04-20 04:53 11.31069 106.99846 20548 ft 405 kts 51°
2026-04-20 04:54 11.32809 107.02122 20936 ft 407 kts 51°
2026-04-20 04:54 11.34560 107.04409 21321 ft 409 kts 50°
2026-04-20 04:54 11.36504 107.06489 21691 ft 410 kts 40°
2026-04-20 04:54 11.38770 107.08278 22067 ft 412 kts 36°
2026-04-20 04:55 11.41074 107.10024 22434 ft 414 kts 36°
2026-04-20 04:55 11.43398 107.11790 22800 ft 417 kts 36°
2026-04-20 04:55 11.45731 107.13571 23159 ft 419 kts 36°
2026-04-20 04:55 11.48082 107.15367 23512 ft 422 kts 36°
2026-04-20 04:56 11.50432 107.17165 23806 ft 424 kts 36°
2026-04-20 04:56 11.52769 107.18953 24089 ft 426 kts 36°
2026-04-20 04:56 11.55161 107.20782 24383 ft 428 kts 36°
2026-04-20 04:56 11.57555 107.22615 24671 ft 430 kts 36°
2026-04-20 04:57 11.59926 107.24429 24963 ft 432 kts 35°
2026-04-20 04:57 11.62344 107.26278 25267 ft 434 kts 35°
2026-04-20 04:57 11.64767 107.28131 25559 ft 436 kts 35°
2026-04-20 04:57 11.67209 107.29996 25861 ft 438 kts 35°
2026-04-20 04:58 11.69651 107.31865 26143 ft 440 kts 35°
2026-04-20 04:58 11.72110 107.33745 26430 ft 442 kts 35°
2026-04-20 04:58 11.74580 107.35637 26710 ft 444 kts 35°
2026-04-20 04:58 11.77058 107.37536 26986 ft 446 kts 35°
2026-04-20 04:59 11.79516 107.39421 27262 ft 448 kts 35°
2026-04-20 04:59 11.82014 107.41338 27531 ft 450 kts 35°
2026-04-20 04:59 11.84526 107.43263 27804 ft 452 kts 35°
2026-04-20 04:59 11.87045 107.45195 28091 ft 454 kts 35°
2026-04-20 05:00 11.89582 107.47137 28363 ft 456 kts 35°
2026-04-20 05:00 11.92120 107.49079 28635 ft 457 kts 35°
2026-04-20 05:00 11.94650 107.51014 28895 ft 459 kts 35°
2026-04-20 05:00 11.97218 107.52981 29146 ft 461 kts 35°
2026-04-20 05:01 11.99794 107.54958 29375 ft 463 kts 35°
2026-04-20 05:01 12.02370 107.56941 29630 ft 465 kts 35°
2026-04-20 05:01 12.04965 107.58939 29874 ft 467 kts 35°
2026-04-20 05:01 12.07558 107.60935 30084 ft 468 kts 35°
2026-04-20 05:02 12.10164 107.62943 30287 ft 470 kts 35°
2026-04-20 05:02 12.12757 107.64938 30495 ft 472 kts 35°
2026-04-20 05:02 12.15395 107.66965 30693 ft 474 kts 35°
2026-04-20 05:02 12.18049 107.69003 30919 ft 475 kts 35°
2026-04-20 05:03 12.20691 107.71031 31217 ft 474 kts 35°
2026-04-20 05:03 12.23303 107.73035 31513 ft 474 kts 35°
2026-04-20 05:03 12.25946 107.75068 31790 ft 474 kts 35°
2026-04-20 05:03 12.28586 107.77100 32074 ft 474 kts 34°
2026-04-20 05:04 12.31373 107.78888 32334 ft 471 kts 25°
2026-04-20 05:04 12.34359 107.80153 32607 ft 468 kts 15°
2026-04-20 05:04 12.37523 107.80905 32879 ft 465 kts
2026-04-20 05:04 12.40755 107.81136 33166 ft 463 kts 359°
2026-04-20 05:05 12.43977 107.81196 33459 ft 463 kts 359°
2026-04-20 05:05 12.47194 107.81261 33758 ft 463 kts 359°
2026-04-20 05:05 12.50377 107.81329 34050 ft 462 kts 359°
2026-04-20 05:05 12.53599 107.81395 34311 ft 462 kts 359°
2026-04-20 05:06 12.56812 107.81457 34579 ft 461 kts 359°
2026-04-20 05:06 12.60037 107.81518 34847 ft 461 kts 359°
2026-04-20 05:06 12.63251 107.81580 35105 ft 460 kts 359°
2026-04-20 05:06 12.66411 107.81640 35365 ft 460 kts 359°
2026-04-20 05:07 12.69614 107.81705 35634 ft 459 kts 359°
2026-04-20 05:07 12.72811 107.81772 35896 ft 458 kts 359°
2026-04-20 05:07 12.76002 107.81839 36163 ft 457 kts 359°
2026-04-20 05:07 12.79155 107.81903 36409 ft 457 kts 359°
2026-04-20 05:08 12.82335 107.81966 36652 ft 456 kts 359°
2026-04-20 05:08 12.85515 107.82029 36875 ft 456 kts 359°
2026-04-20 05:08 12.88686 107.82090 36929 ft 455 kts 359°
2026-04-20 05:09 12.95004 107.82210 36934 ft 452 kts 359°
2026-04-20 05:09 13.01275 107.82326 36938 ft 452 kts 359°
2026-04-20 05:10 13.07565 107.82452 36935 ft 451 kts 359°
2026-04-20 05:10 13.13805 107.82586 36936 ft 451 kts 359°
2026-04-20 05:11 13.20107 107.82712 36937 ft 451 kts 359°
2026-04-20 05:11 13.26353 107.82836 36946 ft 452 kts 359°
2026-04-20 05:12 13.32614 107.83537 36950 ft 455 kts 14°
2026-04-20 05:12 13.38487 107.86036 36948 ft 458 kts 22°
2026-04-20 05:13 13.44234 107.88776 36946 ft 458 kts 22°
2026-04-20 05:13 13.50032 107.91522 36951 ft 458 kts 22°
2026-04-20 05:14 13.55430 107.94084 36954 ft 458 kts 22°
2026-04-20 05:14 13.61225 107.96846 36952 ft 458 kts 22°
2026-04-20 05:15 13.67018 107.99605 36956 ft 458 kts 22°
2026-04-20 05:15 13.72766 108.02346 36963 ft 458 kts 22°
2026-04-20 05:16 13.78412 108.05041 36967 ft 458 kts 22°
2026-04-20 05:16 13.84170 108.07795 36970 ft 458 kts 22°
2026-04-20 05:17 13.89968 108.10563 36974 ft 458 kts 22°
2026-04-20 05:17 13.95754 108.13323 36967 ft 458 kts 22°
2026-04-20 05:17 13.98700 108.14546 36730 ft 455 kts 14°
2026-04-20 05:18 14.01740 108.15257 36485 ft 451 kts
2026-04-20 05:18 14.04868 108.15477 36081 ft 448 kts 359°
2026-04-20 05:18 14.08010 108.15543 35412 ft 450 kts 359°
2026-04-20 05:18 14.11145 108.15603 34713 ft 453 kts 359°
2026-04-20 05:19 14.14282 108.15661 33957 ft 459 kts 359°
2026-04-20 05:19 14.17506 108.15725 33103 ft 463 kts 360°
2026-04-20 05:19 14.20710 108.15796 32643 ft 459 kts 360°
2026-04-20 05:19 14.23891 108.15867 32160 ft 453 kts
2026-04-20 05:20 14.26995 108.15939 31614 ft 441 kts
2026-04-20 05:20 14.30060 108.16009 31003 ft 437 kts 360°
2026-04-20 05:20 14.33082 108.16077 30626 ft 429 kts 360°
2026-04-20 05:20 14.36044 108.16140 29976 ft 423 kts 360°
2026-04-20 05:21 14.38943 108.16202 29204 ft 417 kts 360°
2026-04-20 05:21 14.41812 108.16264 28642 ft 408 kts 360°
2026-04-20 05:21 14.44618 108.16324 28057 ft 399 kts 360°
2026-04-20 05:21 14.47378 108.16383 27387 ft 394 kts 360°
2026-04-20 05:22 14.50109 108.16441 26717 ft 389 kts 360°
2026-04-20 05:22 14.51904 108.16479 26255 ft 386 kts 360°
2026-04-20 05:22 14.53091 108.16501 25957 ft 384 kts 360°
2026-04-20 05:22 14.55752 108.16553 25385 ft 378 kts
2026-04-20 05:23 14.58348 108.16614 24944 ft 369 kts
2026-04-20 05:23 14.60901 108.16678 24429 ft 364 kts
2026-04-20 05:23 14.63427 108.16738 23925 ft 362 kts
2026-04-20 05:23 14.65913 108.16794 23572 ft 360 kts 359°
2026-04-20 05:24 14.68416 108.16847 23138 ft 358 kts
2026-04-20 05:24 14.70903 108.16899 22694 ft 356 kts
2026-04-20 05:24 14.73377 108.16952 22281 ft 354 kts 360°
2026-04-20 05:24 14.75847 108.17003 21872 ft 352 kts
2026-04-20 05:25 14.78290 108.17056 21452 ft 350 kts
2026-04-20 05:25 14.80700 108.17110 20988 ft 350 kts
2026-04-20 05:25 14.83143 108.17169 20565 ft 348 kts
2026-04-20 05:25 14.85261 108.17220 20207 ft 347 kts
2026-04-20 05:26 14.87648 108.17277 19799 ft 345 kts
2026-04-20 05:26 14.90057 108.17333 19413 ft 344 kts
2026-04-20 05:26 14.92452 108.17386 19021 ft 343 kts
2026-04-20 05:26 14.94810 108.17436 18665 ft 342 kts
2026-04-20 05:27 14.97187 108.17482 18306 ft 341 kts
2026-04-20 05:27 14.99559 108.17530 17886 ft 339 kts
2026-04-20 05:27 15.01916 108.17580 17471 ft 337 kts
2026-04-20 05:27 15.04259 108.17634 17088 ft 335 kts
2026-04-20 05:28 15.06585 108.17662 16688 ft 334 kts 356°
2026-04-20 05:28 15.08872 108.17316 16295 ft 331 kts 344°
2026-04-20 05:28 15.11050 108.16545 15894 ft 330 kts 338°
2026-04-20 05:28 15.13168 108.15721 15524 ft 329 kts 339°
2026-04-20 05:29 15.15314 108.14896 15145 ft 328 kts 339°
2026-04-20 05:29 15.17448 108.14080 14766 ft 325 kts 339°
2026-04-20 05:29 15.19559 108.13274 14309 ft 320 kts 339°
2026-04-20 05:29 15.21636 108.12481 13828 ft 316 kts 339°
2026-04-20 05:30 15.23694 108.11693 13270 ft 314 kts 339°
2026-04-20 05:30 15.25741 108.10908 12687 ft 311 kts 339°
2026-04-20 05:30 15.27765 108.10128 12157 ft 309 kts 339°
2026-04-20 05:30 15.29750 108.09362 11631 ft 307 kts 339°
2026-04-20 05:31 15.31751 108.08587 11101 ft 304 kts 339°
2026-04-20 05:31 15.33388 108.07954 10651 ft 303 kts 339°
2026-04-20 05:31 15.35376 108.07186 10129 ft 301 kts 339°
2026-04-20 05:31 15.37333 108.06432 9929 ft 301 kts 339°
2026-04-20 05:32 15.39300 108.05737 9857 ft 296 kts 346°
2026-04-20 05:32 15.40657 108.05499 9626 ft 289 kts 356°
2026-04-20 05:32 15.42609 108.05548 9187 ft 282 kts
2026-04-20 05:32 15.44500 108.06032 8711 ft 279 kts 21°
2026-04-20 05:33 15.46253 108.06882 8169 ft 279 kts 27°
2026-04-20 05:33 15.48009 108.07801 7811 ft 279 kts 27°
2026-04-20 05:33 15.49709 108.08680 7641 ft 271 kts 26°
2026-04-20 05:33 15.51386 108.09541 7395 ft 268 kts 27°
2026-04-20 05:34 15.53058 108.10399 7065 ft 266 kts 26°
2026-04-20 05:34 15.54716 108.11251 6735 ft 265 kts 26°
2026-04-20 05:34 15.57987 108.12934 6126 ft 262 kts 26°
2026-04-20 05:35 15.59614 108.13774 5973 ft 261 kts 26°
2026-04-20 05:35 15.61228 108.14612 5976 ft 258 kts 26°
2026-04-20 05:35 15.62818 108.15437 5974 ft 253 kts 26°
2026-04-20 05:35 15.64383 108.16249 5858 ft 251 kts 26°
2026-04-20 05:36 15.65944 108.17059 5601 ft 250 kts 27°
2026-04-20 05:36 15.67497 108.17863 5319 ft 249 kts 26°
2026-04-20 05:36 15.69023 108.18653 5052 ft 248 kts 26°
2026-04-20 05:36 15.70566 108.19452 4780 ft 246 kts 26°
2026-04-20 05:37 15.72092 108.20242 4557 ft 245 kts 27°
2026-04-20 05:37 15.73593 108.21022 4411 ft 234 kts 26°
2026-04-20 05:37 15.75000 108.21754 4378 ft 224 kts 26°
2026-04-20 05:37 15.76391 108.22477 4392 ft 223 kts 27°
2026-04-20 05:38 15.77786 108.23175 4399 ft 222 kts 20°
2026-04-20 05:38 15.79280 108.23532 4263 ft 219 kts
2026-04-20 05:38 15.80785 108.23328 3972 ft 217 kts 348°
2026-04-20 05:38 15.82276 108.23054 3514 ft 217 kts 351°
2026-04-20 05:39 15.83755 108.22829 3111 ft 216 kts 352°
2026-04-20 05:39 15.85242 108.22614 2674 ft 217 kts 353°
2026-04-20 05:39 15.86677 108.22406 2561 ft 198 kts 353°
2026-04-20 05:39 15.88010 108.22212 2436 ft 188 kts 353°
2026-04-20 05:40 15.89268 108.22031 2295 ft 179 kts 353°
2026-04-20 05:40 15.90507 108.21851 2175 ft 178 kts 356°
2026-04-20 05:40 15.91713 108.21676 1991 ft 173 kts 354°
2026-04-20 05:40 15.92877 108.21508 1923 ft 169 kts 354°
2026-04-20 05:41 15.94050 108.21338 1746 ft 171 kts 354°
2026-04-20 05:41 15.95228 108.21167 1549 ft 171 kts 355°
2026-04-20 05:41 15.96376 108.21001 1330 ft 161 kts 356°
2026-04-20 05:41 15.97464 108.20842 1129 ft 156 kts 354°
2026-04-20 05:42 15.98512 108.20690 943 ft 151 kts 357°
2026-04-20 05:42 15.99546 108.20540 737 ft 149 kts 355°
2026-04-20 05:42 16.00560 108.20387 556 ft 151 kts 355°
2026-04-20 05:42 16.01615 108.20240 402 ft 151 kts 356°
2026-04-20 05:43 16.02652 108.20085 163 ft 152 kts 356°
2026-04-20 05:43 16.03690 108.19940 36 ft 141 kts 354°
2026-04-20 05:43 16.04471 108.19826 35 ft 85 kts 351°
2026-04-20 05:43 16.04774 108.19782 35 ft 24 kts 354°
2026-04-20 05:44 16.04878 108.19818 35 ft 15 kts 63°
2026-04-20 05:44 16.04890 108.19886 34 ft 8 kts 83°
2026-04-20 05:44 16.04898 108.19941 34 ft 8 kts 82°
2026-04-20 05:44 16.04906 108.20003 33 ft 10 kts 82°
2026-04-20 05:45 16.04921 108.20075 32 ft 10 kts 61°
2026-04-20 05:45 16.04980 108.20094 32 ft 6 kts 355°
2026-04-20 05:45 16.05021 108.20089 32 ft 8 kts 352°
2026-04-20 05:45 16.05103 108.20077 32 ft 13 kts 352°
2026-04-20 05:46 16.05186 108.20064 33 ft 11 kts 352°
2026-04-20 05:46 16.05260 108.20055 33 ft 10 kts
2026-04-20 05:46 16.05289 108.20109 33 ft 9 kts 82°
2026-04-20 05:46 16.05297 108.20173 32 ft 9 kts 81°
2026-04-20 05:47 16.05298 108.20181 32 ft 0 kts 82°